Back to catalog

SHIYAN 32-01

AliveScienceVLEO
NORAD 66376·PAYLOAD·🇨🇳 China

Launched Nov 8, 2025 from Yellow Sea Launch Area

Loading…

Next Passes (next 24 hours)

TLE

FreshSource: Space-Track

Epoch: Sep 14, 2026, 13:57 UTC

1 66376U 25255A   26257.58168312  .00023910  00000-0  34731-3 0  9999
2 66376  52.9912 294.0380 0007858 201.3942 158.6740 15.55669577 48114

Track SHIYAN 32-01 in real time with AllMySat

Download on the App Store